PDT,Max TemperatureF,Mean TemperatureF,Min TemperatureF,Max Dew PointF,MeanDew PointF,Min DewpointF,Max Humidity, Mean Humidity, Min Humidity, Max Sea Level PressureIn, Mean Sea Level PressureIn, Min Sea Level PressureIn, Max VisibilityMiles, Mean VisibilityMiles, Min VisibilityMiles, Max Wind SpeedMPH, Mean Wind SpeedMPH, Max Gust SpeedMPH,PrecipitationIn, CloudCover, Events, WindDirDegrees
2014-6-1,64,56,48,53,50,47,96,81,65,30.03,29.94,29.88,9,7,5,10,3,,0.00,1,,165
2014-6-2,59,54,48,52,50,48,100,92,78,29.95,29.87,29.85,10,4,0,9,2,,0.00,6,Fog,157
2014-6-3,63,56,50,52,50,48,97,83,63,30.01,29.97,29.94,9,6,4,10,3,,0.00,4,,169
2014-6-4,79,62,46,57,50,33,97,65,22,29.99,29.94,29.87,10,8,4,8,2,,0.00,0,,161
2014-6-5,90,79,68,51,38,26,42,25,14,29.91,29.87,29.82,10,10,10,13,8,20,0.00,0,,2
2014-6-6,86,76,65,51,42,33,49,32,20,29.92,29.89,29.85,10,10,9,14,10,21,0.00,0,,339
2014-6-7,83,74,66,54,45,38,56,35,20,30.00,29.96,29.91,10,10,10,13,9,30,0.00,0,,348
2014-6-8,88,79,70,54,48,40,51,35,19,30.03,29.97,29.91,10,10,10,18,11,28,0.00,0,,353
2014-6-9,81,72,63,53,49,41,56,41,33,29.96,29.92,29.87,10,10,10,17,10,22,0.00,0,,349
2014-6-10,82,76,70,51,44,35,40,32,22,29.96,29.92,29.88,10,10,10,17,9,24,0.00,0,,345
2014-6-11,70,60,50,50,47,36,93,68,29,29.98,29.91,29.86,10,8,5,13,7,26,0.00,3,,167
2014-6-12,57,54,50,52,50,48,94,86,72,30.10,30.03,29.96,10,8,1,8,3,,0.00,7,Rain,201
2014-6-13,64,57,50,55,52,48,100,88,58,30.17,30.13,30.10,10,6,0,16,2,24,0.01,5,Fog-Rain,304
2014-6-14,70,60,50,51,48,45,89,64,47,30.12,30.03,29.94,10,10,9,16,4,23,0.00,0,,329
2014-6-15,66,58,50,51,48,45,94,71,52,29.95,29.93,29.91,10,9,5,18,6,25,0.00,1,,321
2014-6-16,63,54,46,47,43,39,93,61,46,30.08,30.00,29.93,10,10,7,20,7,30,0.00,0,,339
2014-6-17,68,59,50,49,44,38,69,54,37,30.13,30.09,30.05,10,10,10,17,7,24,0.00,0,,350
2014-6-18,73,62,50,49,46,42,89,55,37,30.07,30.03,29.99,10,10,9,13,5,23,0.00,0,,317
2014-6-19,64,56,47,54,49,46,100,85,63,30.15,30.09,30.03,10,8,0,13,3,18,0.00,3,Fog,288
2014-6-20,70,60,50,54,50,47,97,77,49,30.14,30.10,30.04,10,10,7,14,2,20,0.00,1,,304
2014-6-21,63,55,47,50,48,46,93,79,60,30.06,30.01,29.97,10,7,4,10,3,,0.00,1,,195
2014-6-22,59,53,47,52,49,46,94,85,70,30.06,30.02,29.99,9,7,4,8,3,,0.00,3,,167
2014-6-23,66,58,50,53,51,49,94,82,54,30.14,30.08,30.04,10,9,7,17,3,22,0.00,4,,270
2014-6-24,66,58,50,58,55,50,100,89,65,30.14,30.11,30.06,10,5,0,13,3,20,0.00,4,Fog,254
2014-6-25,60,58,55,61,56,55,100,99,94,30.06,29.97,29.91,10,2,0,12,3,17,1.35,7,Fog-Rain,159
2014-6-26,57,56,54,58,56,55,100,99,94,30.01,29.97,29.92,10,2,0,12,8,17,0.48,8,Fog-Rain,157
2014-6-27,59,56,54,58,56,55,100,100,96,30.04,29.98,29.92,10,2,0,12,8,18,0.67,8,Fog-Rain,158
2014-6-28,65,60,56,58,55,52,100,82,67,30.11,30.07,30.03,10,9,2,15,4,22,0.00,4,,319
2014-6-29,77,64,50,59,55,50,100,76,54,30.12,30.06,29.98,10,9,6,15,4,,0.00,0,,319
2014-6-30,82,67,52,57,54,51,97,68,37,30.01,29.91,29.83,10,8,6,8,4,,0.00,0,,141